Date String (YYYY-MM-DD hh:mm:ss) UTC,Instrument flags,Ambient pressure (hPa),Sample flow (lpm),Bypass flow (lpm),Sample temperature (°C),Ambient temperature (°C),ASC tube jacket temperature (°C),LED temperature (°C),Box temperature (°C),Sample RH (%),Span deviation,Mass concentration (μg/m³),Mass concentration (μg/m³),Mass concentration (μg/m³)
DateTimeUTC,F1_M11,P_M11,Q1_M11,Q2_M11,T1_M11,T2_M11,T3_M11,T4_M11,T5_M11,U1_M11,ZSPAN_M11,X0_M11,X2_M11,X1_M11
2021-10-31 09:00:00,,0830.1,5.01,0.00,28.8,27.8,00.0,37.9,30.5,16.1,0000.0,0007.08,0002.58,0001.85
2021-10-31 09:01:00,,0830.2,5.01,0.00,28.7,27.8,00.0,37.9,30.5,16.1,0000.0,0007.93,0002.61,0001.86
2021-10-31 09:02:00,,0830.1,4.98,0.00,28.7,27.8,00.0,37.9,30.5,16.1,0000.0,0007.93,0002.64,0001.88
2021-10-31 09:03:00,,0830.1,5.02,0.00,28.7,27.8,00.0,37.9,30.4,16.1,0000.0,0008.20,0002.63,0001.87
2021-10-31 09:04:00,,0830.1,4.99,0.00,28.7,27.8,00.0,37.8,30.4,16.1,0000.0,0008.08,0002.59,0001.86
2021-10-31 09:05:00,,0830.1,5.01,0.00,28.7,27.7,00.0,37.8,30.4,16.1,0000.0,0008.01,0002.59,0001.86
2021-10-31 09:06:00,,0830.2,5.00,0.00,28.7,27.7,00.0,37.8,30.4,16.2,0000.0,0008.85,0002.67,0001.85
2021-10-31 09:07:00,,0830.1,4.99,0.00,28.7,27.7,00.0,37.8,30.4,16.2,0000.0,0008.59,0002.71,0001.85
2021-10-31 09:08:00,,0830.1,5.02,0.00,28.7,27.7,00.0,37.8,30.4,16.2,0000.0,0008.71,0002.69,0001.84
2021-10-31 09:09:00,,0830.1,4.99,0.00,28.6,27.7,00.0,37.8,30.4,16.2,0000.0,0008.86,0002.69,0001.83
2021-10-31 09:10:00,,0830.2,5.01,0.00,28.6,27.7,00.0,37.8,30.3,16.2,0000.0,0008.83,0002.65,0001.83
2021-10-31 09:11:00,,0830.2,5.00,0.00,28.6,27.7,00.0,37.8,30.3,16.2,0000.0,0008.86,0002.61,0001.81
2021-10-31 09:12:00,,0830.2,4.99,0.00,28.6,27.7,00.0,37.8,30.3,16.3,0000.0,0008.52,0002.63,0001.80
2021-10-31 09:13:00,,0830.3,5.01,0.00,28.6,27.7,00.0,37.7,30.3,16.3,0000.0,0007.98,0002.63,0001.78
2021-10-31 09:14:00,,0830.2,5.00,0.00,28.6,27.6,00.0,37.7,30.3,16.3,0000.0,0007.88,0002.63,0001.78
2021-10-31 09:15:00,,0830.2,5.00,0.00,28.6,27.6,00.0,37.7,30.3,16.3,0000.0,0008.00,0002.64,0001.79
2021-10-31 09:16:00,,0830.1,5.00,0.00,28.6,27.6,00.0,37.7,30.3,16.3,0000.0,0008.11,0002.65,0001.81
2021-10-31 09:17:00,,0830.1,5.01,0.00,28.5,27.6,00.0,37.7,30.2,16.3,0000.0,0007.81,0002.59,0001.82
2021-10-31 09:18:00,,0830.1,4.99,0.00,28.5,27.6,00.0,37.7,30.2,16.3,0000.0,0008.46,0002.56,0001.81
2021-10-31 09:19:00,,0830.1,5.00,0.00,28.5,27.6,00.0,37.7,30.2,16.3,0000.0,0008.61,0002.62,0001.83
2021-10-31 09:20:00,,0830.1,4.99,0.00,28.5,27.6,00.0,37.6,30.2,16.3,0000.0,0008.43,0002.67,0001.85
2021-10-31 09:21:00,,0830.1,5.01,0.00,28.5,27.6,00.0,37.6,30.2,16.3,0000.0,0008.38,0002.66,0001.84
2021-10-31 09:22:00,,0830.1,5.00,0.00,28.5,27.5,00.0,37.6,30.2,16.3,0000.0,0008.56,0002.69,0001.85
2021-10-31 09:23:00,,0830.1,5.00,0.00,28.4,27.5,00.0,37.6,30.2,16.3,0000.0,0008.46,0002.66,0001.87
2021-10-31 09:24:00,,0830.2,5.00,0.00,28.4,27.5,00.0,37.6,30.2,16.3,0000.0,0008.31,0002.67,0001.87
2021-10-31 09:25:00,,0830.2,5.01,0.00,28.4,27.5,00.0,37.6,30.1,16.3,0000.0,0008.19,0002.65,0001.86
2021-10-31 09:26:00,,0830.2,4.99,0.00,28.4,27.5,00.0,37.6,30.1,16.4,0000.0,0007.98,0002.63,0001.84
2021-10-31 09:27:00,,0830.3,5.00,0.00,28.4,27.5,00.0,37.6,30.1,16.3,0000.0,0007.90,0002.66,0001.83
2021-10-31 09:28:00,,0830.2,5.00,0.00,28.4,27.5,00.0,37.6,30.1,16.3,0000.0,0008.26,0002.71,0001.81
2021-10-31 09:29:00,,0830.2,5.00,0.00,28.4,27.5,00.0,37.5,30.1,16.3,0000.0,0007.34,0002.75,0001.81
2021-10-31 09:30:00,,0830.2,5.00,0.00,28.4,27.5,00.0,37.5,30.1,16.3,0000.0,0006.79,0002.70,0001.79
2021-10-31 09:31:00,,0830.2,5.00,0.00,28.4,27.5,00.0,37.5,30.1,16.3,0000.0,0007.39,0002.64,0001.76
2021-10-31 09:32:00,,0830.2,5.00,0.00,28.4,27.5,00.0,37.5,30.1,16.3,0000.0,0007.37,0002.59,0001.76
2021-10-31 09:33:00,,0830.2,5.00,0.00,28.4,27.4,00.0,37.5,30.1,16.3,0000.0,0007.05,0002.55,0001.75
2021-10-31 09:34:00,,0830.2,4.99,0.00,28.4,27.4,00.0,37.5,30.1,16.3,0000.0,0007.22,0002.56,0001.73
2021-10-31 09:35:00,,0830.2,5.01,0.00,28.4,27.4,00.0,37.5,30.1,16.3,0000.0,0007.32,0002.59,0001.72
2021-10-31 09:36:00,,0830.2,5.00,0.00,28.3,27.4,00.0,37.5,30.1,16.4,0000.0,0007.26,0002.57,0001.72
2021-10-31 09:37:00,,0830.2,4.99,0.00,28.3,27.4,00.0,37.5,30.1,16.4,0000.0,0007.07,0002.56,0001.73
2021-10-31 09:38:00,,0830.2,5.00,0.00,28.3,27.4,00.0,37.5,30.0,16.4,0000.0,0006.77,0002.49,0001.73
2021-10-31 09:39:00,,0830.3,5.01,0.00,28.3,27.4,00.0,37.5,30.0,16.4,0000.0,0005.96,0002.44,0001.73
2021-10-31 09:40:00,,0830.3,4.99,0.00,28.3,27.4,00.0,37.4,30.0,16.4,0000.0,0006.46,0002.45,0001.72
2021-10-31 09:41:00,,0830.3,5.02,0.00,28.3,27.4,00.0,37.4,30.0,16.4,0000.0,0006.81,0002.49,0001.71
2021-10-31 09:42:00,,0830.4,4.99,0.00,28.3,27.4,00.0,37.4,30.0,16.4,0000.0,0006.65,0002.54,0001.70
2021-10-31 09:43:00,,0830.3,5.01,0.00,28.2,27.4,00.0,37.4,30.0,16.4,0000.0,0006.72,0002.53,0001.68
2021-10-31 09:44:00,,0830.3,5.01,0.00,28.2,27.3,00.0,37.4,30.0,16.4,0000.0,0006.85,0002.53,0001.65
2021-10-31 09:45:00,,0830.4,4.99,0.00,28.2,27.3,00.0,37.4,30.0,16.4,0000.0,0006.73,0002.50,0001.62
2021-10-31 09:46:00,,0830.4,5.01,0.00,28.2,27.3,00.0,37.4,29.9,16.4,0000.0,0006.56,0002.46,0001.60
2021-10-31 09:47:00,,0830.5,4.99,0.00,28.2,27.3,00.0,37.4,29.9,16.4,0000.0,0006.58,0002.49,0001.57
2021-10-31 09:48:00,,0830.4,5.01,0.00,28.2,27.3,00.0,37.4,29.9,16.4,0000.0,0007.39,0002.53,0001.54
2021-10-31 09:49:00,,0830.4,4.99,0.00,28.2,27.3,00.0,37.3,29.9,16.4,0000.0,0008.21,0002.53,0001.49
2021-10-31 09:50:00,,0830.5,5.01,0.00,28.2,27.3,00.0,37.3,29.9,16.4,0000.0,0008.19,0002.50,0001.44
2021-10-31 09:51:00,,0830.4,5.00,0.00,28.2,27.3,00.0,37.3,29.9,16.4,0000.0,0007.92,0002.49,0001.41
2021-10-31 09:52:00,,0830.4,5.00,0.00,28.2,27.3,00.0,37.3,29.9,16.4,0000.0,0007.69,0002.45,0001.37
2021-10-31 09:53:00,,0830.4,5.01,0.00,28.1,27.3,00.0,37.3,29.9,16.4,0000.0,0007.13,0002.35,0001.34
2021-10-31 09:54:00,,0830.4,5.00,0.00,28.1,27.3,00.0,37.3,29.8,16.4,0000.0,0007.01,0002.31,0001.32
2021-10-31 09:55:00,,0830.5,4.99,0.00,28.1,27.2,00.0,37.3,29.8,16.4,0000.0,0007.36,0002.30,0001.32
2021-10-31 09:56:00,,0830.4,5.00,0.00,28.1,27.2,00.0,37.3,29.8,16.4,0000.0,0007.78,0002.28,0001.32
2021-10-31 09:57:00,,0830.5,5.00,0.00,28.1,27.2,00.0,37.2,29.8,16.4,0000.0,0008.13,0002.27,0001.32
2021-10-31 09:58:00,,0830.5,5.00,0.00,28.1,27.2,00.0,37.2,29.8,16.4,0000.0,0008.11,0002.24,0001.29
2021-10-31 09:59:00,,0830.5,5.00,0.00,28.1,27.2,00.0,37.2,29.8,16.4,0000.0,0007.82,0002.21,0001.28
